Saturday, August 30, 2014
10:17 UTC
  |  Log In   |  Register Free
Airport Search:

Oroville Municipal Airport
(KOVE)

Oroville Municipal Airport Diagram
No Airport Diagram Available

FAA data valid effective July 24, 2014 until September 18, 2014 (unless otherwise noted).

 
 
 
 
 
 
 
 
 
 
 
 
 
 

Current Aviation Weather for Oroville Municipal Airport (KOVE)

The most recent METAR observation for KOVE was updated at: 0953 UTC
METAR Summary (Translated METAR)
KOVE
300953Z AUTO 21003KT 10SM CLR 23/13 A2983 RMK AO2 SLP101 T02280128
KCIC
(21.4 nm NW from KOVE)
300955Z AUTO 00000KT 10SM CLR 22/09 A2983 RMK AO1
TAF
No TAF information found within 50 nm of KOVE
  Airport Weather Conditions for KOVE

 Current Weather at OVE
73° F
Fair
Southwest winds at 3.5 mph
OVE NOAA Radar

Pressure: 29.83 in
Humidity: 53%
Wind: Southwest at 3.5 MPH (3 KT)
Dew Point: 55.0°F
Visibility: 10.00 mi


Airport Weather Forecast for KOVE

Translated METAR and TAF for KOVE
Translated METAR for KOVE (1011 UTC 30 August 2014)
found at http://aviationweather.gov/adds/metars/
 
METAR text: KOVE 300953Z AUTO 21003KT 10SM CLR 23/13 A2983 RMK AO2 SLP101 T02280128
Conditions at: KOVE (OROVILLE , CA, US) observed 0953 UTC 30 August 2014
Temperature: 22.8°C (73°F)
Dewpoint: 12.8°C (55°F) [RH = 53%]
Pressure (altimeter): 29.83 inches Hg (1010.2 mb)
[Sea-level pressure: 1010.1 mb]
Winds: from the SSW (210 degrees) at 3 MPH (3 knots; 1.6 m/s)
Visibility: 10 or more miles (16+ km)
Ceiling: at least 12,000 feet AGL
Clouds: sky clear below 12,000 feet AGL
Weather: automated observation with no human augmentation;
there may or may not be significant weather present at this time
Translated TAF for KOVE

There is no translated TAF available for this airport

Find All Airport Services Find A Hotel Find A Rental Car Find A Golf Course Find A Restaurant $100 Hamburger



FBO's on the Field
FBO Company Facility Photos Services Transportation Aviation Fuel Prices: Prices include tax
Catering Weather Repair Courtesy Rental Type 100LL JetA JetA+ MOGAS 8087
 
Oroville Municipal Airport

This FBO has not yet been rated
FS:Epic
Last Updated: Aug-14
Login to update fuel prices
SS:
Contact Oroville Municipal AirportMore FBO Information
 
Add another FBO Facility Photos Catering Weather Repair Courtesy Rental Type 100LL JetA JetA+ MOGAS 8087
Services Transportation Aviation Fuel Prices: Prices include tax


GlobalAir.com Airport Resource Center model-print
model-print
model-print
model-print